Location: Charlottesville
(38.0290°N, 78.4770°W)
Time: 09:53:00
(UTC-04:00)

ISS - Pass Details

Date: 14 October 2017
Orbit: 401 x 408 km, 51.6° (Epoch: 22 October)

Event Time Altitude Azimuth Distance (km) Brightness Sun altitude
Rises 19:26:12 0° 312° (NW) 2,324 0.8 -10.4°
Reaches altitude 10° 19:28:19 10° 317° (NW) 1,463 -0.4 -10.8°
Maximum altitude 19:31:33 55° 37° (NE) 492 -3.7 -11.5°
Enters shadow 19:33:46 18° 111° (ESE) 1,070 -2.3 -11.9°
